Home   Weather   Leawood   Past weeks

Flag for USA Past Weather in Leawood, Kansas, USA — Yesterday and Last 2 Weeks

Now
39 °F

Passing clouds.


Feels Like: 31 °F
Forecast: 31 / 55 °F
Wind: 15 mph from East

Location: Johnson County Executive Airport

Current Time: Jan 24, 2017 at 11:39:05 am

Latest Report: Jan 24, 2017 at 10:53 am


Visibility: 10 mi

Pressure: 29.64 "Hg

Humidity: 82%

Dew Point: 34 °F

Location of LeawoodLocation

Past Weather in Leawood — Graph

°F

Leawood Temperature Yesterday

Maximum temperature yesterday: 42 °F (at 3:53 pm)
Minimum temperature yesterday: 29 °F (at 5:53 am)
Average temperature yesterday: 33 °F

High & Low Weather Summary for the Past Weeks

 TemperatureHumidityPressure
High63 °F (Jan 11, 2:53 pm)100% (Jan 14, 5:53 am)30.62 "Hg (Jan 14, 5:53 am)
Low17 °F (Jan 12, 7:53 am)43% (Jan 11, 2:53 pm)29.38 "Hg (Jan 10, 5:53 am)
Average37 °F91%29.94 "Hg
* Reported Jan 9 9:53 am — Jan 24 9:53 am, Leawood, Weather by CustomWeather, © 2017

Note: Actual official high and low records may vary slightly from our data, if they occured in-between our weather recording intervals... More about our weather records

Advertising

Leawood Weather History for the Previous 24 Hours

Scroll right to see more
 ConditionsComfort  
Time TempWeatherWind HumidityBarometerVisibility
9:53 am
Tue, Jan 24
36 °FPassing clouds.15 mph89%29.68 "Hg9 mi
8:53 am33 °FSunny.12 mph92%29.71 "Hg7 mi
7:53 am31 °FIce fog.10 mph96%29.72 "Hg6 mi
6:53 am31 °FClear.12 mph96%29.72 "Hg8 mi
5:53 am31 °FPassing clouds.13 mph96%29.73 "Hg8 mi
4:53 am31 °FPassing clouds.13 mph96%29.75 "Hg8 mi
3:53 am31 °FClear.9 mph96%29.78 "Hg8 mi
2:53 am32 °FClear.10 mph92%29.78 "Hg8 mi
1:53 am32 °FClear.8 mph92%29.80 "Hg7 mi
12:53 am31 °FIce fog.6 mph96%29.81 "Hg6 mi
11:53 pm
Mon, Jan 23
32 °FClear.8 mph96%29.82 "Hg7 mi
10:53 pm32 °FIce fog.7 mph96%29.84 "Hg6 mi
9:53 pm33 °FClear.6 mph92%29.84 "Hg7 mi
8:53 pm33 °FFog.5 mph96%29.85 "Hg6 mi
7:53 pm34 °FFog.6 mph92%29.85 "Hg6 mi
6:53 pm36 °FClear.6 mph89%29.85 "Hg8 mi
5:53 pm38 °FClear.6 mph83%29.84 "Hg9 mi
4:53 pm42 °FSunny.7 mph73%29.84 "Hg9 mi
3:53 pm42 °FSunny.6 mph71%29.84 "Hg8 mi
2:53 pm41 °FSunny.3 mph74%29.84 "Hg7 mi
1:53 pm40 °FHaze.3 mph77%29.87 "Hg6 mi
1:28 pm36 °FFog.No wind85%29.87 "Hg5 mi
12:53 pm37 °FFog.5 mph86%29.89 "Hg4 mi
11:53 am33 °FFog.No wind100%29.93 "Hg3 mi
11:34 am32 °FIce fog.No wind100%29.90 "Hg2 mi
11:10 am32 °FIce fog.7 mph100%29.92 "Hg3 mi
Weather by CustomWeather, © 2017

See weather overviewHow to use our weather pages